Location: Cicognara
(44.9500°N, 10.4667°E)
Time: 15:35:01
(UTC+00:00)

Cosmos 1812 Rocket - Pass Details

Date: 20 June 2021
Orbit: 606 x 631 km, 82.5° (Epoch: 03 August)

Event Time Altitude Azimuth Distance (km) Brightness Sun altitude
Rises 22:52:01 0° 353° (N) 2,881 8.6 -21.3°
Reaches altitude 10° 22:54:16 10° 356° (N) 1,975 7.3 -21.4°
Maximum altitude 22:58:36 68° 79° (E) 663 3.6 -21.4°
Enters shadow 22:59:21 56° 133° (SE) 733 3.6 -21.5°
